Regional Weather Roundup
Issued by NWS Northern Indiana

Home | Current Version | Previous Version | Text Only | Print | Product List | Glossary Off
Versions: 1 2 3 4 5 6 7 8 9 10 11 12 13 14 15 16 17 18 19 20 21 22 23 24 25 26 27 28 29 30 31 32 33 34 35 36 37 38 39 40 41 42 43 44 45 46 47 48 49 50

000
ASUS43 KIWX 020610
RWRIWX

KIWX WEATHER ROUNDUP
NATIONAL WEATHER SERVICE NORTHERN INDIANA
200 AM EDT SUN AUG 02 2015

NOTE: "FAIR" INDICATES FEW OR NO CLOUDS BELOW 12,000 FEET WITH NO
SIGNIFICANT WEATHER AND/OR OBSTRUCTIONS TO VISIBILITY.

* THESE STATIONS ARE NOT UNDER NWS QUALITY CONTROL. THEY ALSO MAY NOT
  REPORT WEATHER SUCH AS PRECIPITATION OR FOG.

INZ001>027-020700-
NORTHERN INDIANA

CITY           SKY/WX    TMP DP  RH WIND       PRES   REMARKS
GARY*          CLEAR     76  65  67 SW7       29.90F
VALPARAISO     CLEAR     70  64  81 SW7       29.92F
6HR MIN TEMP:  70; 6HR MAX TEMP:  81;

MICHIGAN CITY* CLEAR     68  61  77 SW6       29.91S
LAPORTE*       CLEAR     70  66  85 SW6       29.92S
6HR MIN TEMP:  70; 6HR MAX TEMP:  81;

KNOX*          CLEAR     66  63  88 SW5       29.91F
SOUTH BEND     CLEAR     71  63  75 SW12      29.91S
6HR MIN TEMP:  71; 6HR MAX TEMP:  82;

GOSHEN         PTCLDY    68  62  81 SW9       29.91S
6HR MIN TEMP:  68; 6HR MAX TEMP:  78;

MONTICELLO*    MOCLDY    68  64  89 SW7       29.94S
6HR MIN TEMP:  68; 6HR MAX TEMP:  79;

LOGANSPORT*    MOCLDY    64  59  82 SW7       29.95F
ROCHESTER*     CLEAR     70  64  83 SW5       29.94S
WARSAW*        CLEAR     70  61  73 W7        29.93S
ANGOLA*        PTCLDY    68  63  83 CALM      29.92R
FORT WAYNE     PTCLDY    67  61  81 SW7       29.94S
6HR MIN TEMP:  66; 6HR MAX TEMP:  80;

HUNTINGTON*    PTCLDY    68  61  78 SW5       29.94S
6HR MIN TEMP:  68; 6HR MAX TEMP:  78;

PERU/GRISSOM   MOCLDY    66  62  85 SW8       29.94F
6HR MIN TEMP:  66; 6HR MAX TEMP:  78;

MARION*        MOCLDY    65  59  81 SW7       29.96F
6HR MIN TEMP:  52; 6HR MAX TEMP:  89;


$$
INZ028>050-020700-
CENTRAL INDIANA

CITY           SKY/WX    TMP DP  RH WIND       PRES   REMARKS
LAFAYETTE      MOCLDY    67  64  90 W3        29.95S
6HR MIN TEMP:  66; 6HR MAX TEMP:  77;

KOKOMO*        MOCLDY    70  59  68 SW9       29.96F
6HR MIN TEMP:  70; 6HR MAX TEMP:  79;

MUNCIE*        MOCLDY    69  58  67 SW7       29.97S
6HR MIN TEMP:  68; 6HR MAX TEMP:  76;

INDIANAPOLIS   MOCLDY    67  59  75 SW7       29.97S
6HR MIN TEMP:  66; 6HR MAX TEMP:  79;


$$
MIZ043>046-050>051-056>058-064>065-071>073-077>080-020700-
SOUTHWEST LOWER MICHIGAN

CITY           SKY/WX    TMP DP  RH WIND       PRES   REMARKS
BATTLE CREEK   MOCLDY    66  60  81 CALM      29.90S
6HR MIN TEMP:  66; 6HR MAX TEMP:  77;

BENTON HARBOR  CLEAR     73  67  81 SW10      29.88S
6HR MIN TEMP:  66; 6HR MAX TEMP:  77;

COLDWATER*     PTCLDY    66  59  76 SW5       29.91S
6HR MIN TEMP:  63; 6HR MAX TEMP:  73;

HILLSDALE*     CLEAR     64  61  90 CALM      29.92S
HOLLAND        CLEAR     65  57  75 CALM      29.87F
6HR MIN TEMP:  63; 6HR MAX TEMP:  76;

GRAND RAPIDS   CLEAR     61  56  83 S3        29.87F
6HR MIN TEMP:  61; 6HR MAX TEMP:  78;

KALAMAZOO      CLEAR     68  57  68 S6        29.90S
6HR MIN TEMP:  66; 6HR MAX TEMP:  78;

STURGIS*       CLEAR     66  61  82 CALM      29.90F
THREE RIVERS*  FAIR      65  61  87 CALM      29.91S
6HR MIN TEMP:  64; 6HR MAX TEMP:  76;


$$
OHZ001>008-015>018-024>025-020700-
NORTHWEST OHIO

CITY           SKY/WX    TMP DP  RH WIND       PRES   REMARKS
WAUSEON*       FAIR      64  61  88 SW6       29.91S
DEFIANCE       PTCLDY    71  60  68 SW6       29.91F
6HR MIN TEMP:  69; 6HR MAX TEMP:  79; 6HR PCP: TRACE;

FINDLAY        PTCLDY    68  59  73 SW7       29.92F
6HR MIN TEMP:  65; 6HR MAX TEMP:  79;

TOLEDO EXPRESS CLEAR     65  57  75 SW3       29.91S
6HR MIN TEMP:  64; 6HR MAX TEMP:  78;

TOLEDO METCALF PTCLDY    67  57  70 S6        29.91F
6HR MIN TEMP:  67; 6HR MAX TEMP:  80;

LIMA           PTCLDY    68  58  70 SW6       29.95F
6HR MIN TEMP:  67; 6HR MAX TEMP:  77;


$$
AND FOR LAKE MICHIGAN COASTAL AND OPEN LAKE BUOY OBSERVATIONS

STATION/POSITION TEMP    WIND        PRES    VSBY  WAVE
                 AIR SEA DIR/SP/G                  HT/PER
                 (F)     (DEG/KT/KT) (MB)    (MI)  (FT/S)
CALUMET HARBOR    76     230/  5/ 10   N/A
MICHIGAN CITY     75     190/ 12/ 14   N/A
BURNS HARBOR      76     230/ 10/ 15 1013.2R
SAINT JOSEPH      75     190/ 12/ 16 1012.9S
4 MI NW BRIDGMAN  74 73  260/ 12/ 14   N/A           3/ 4
MICHIGAN CITY     75 74  240/ 12/ 14   N/A           2/ 3

$$
&&


USA.gov is the U.S. government's official web portal to all federal, state and local government web resources and services.